| time (UTC) | temp F | wind direction | speed MPH | gust MPH | rain 1hr in | rain 24hr in | rain mn in | humidity % | barometer mb |
| 20260831160404 | 93 | 22 | 5.0 | 5.0 | 0.00 | 0.00 | 0.00 | 100 | 1015.8 |
| 20260831160252 | 94 | 216 | 0.0 | 3.0 | 0.00 | 0.00 | 0.00 | 100 | 1016.0 |
| 20260831155904 | 94 | 216 | 0.0 | 3.0 | 0.00 | 0.00 | 0.00 | 100 | 1016.0 |
| 20260831155634 | 94 | 192 | 1.0 | 5.0 | 0.00 | 0.00 | 0.00 | 100 | 1016.0 |
| 20260831155404 | 94 | 192 | 1.0 | 5.0 | 0.00 | 0.00 | 0.00 | 100 | 1016.0 |
| 20260831155142 | 93 | 60 | 0.0 | 4.0 | 0.00 | 0.00 | 0.00 | 100 | 1015.9 |
| 20260831154904 | 93 | 60 | 0.0 | 4.0 | 0.00 | 0.00 | 0.00 | 100 | 1015.9 |
| 20260831154404 | 93 | 139 | 0.0 | 3.0 | 0.00 | 0.00 | 0.00 | 100 | 1015.9 |
| 20260831153904 | 93 | 168 | 0.0 | 3.0 | 0.00 | 0.00 | 0.00 | 100 | 1015.8 |
| 20260831153404 | 92 | 288 | 0.0 | 4.0 | 0.00 | 0.00 | 0.00 | 100 | 1015.9 |
| 20260831152904 | 92 | 302 | 1.0 | 3.0 | 0.00 | 0.00 | 0.00 | 100 | 1015.9 |
| 20260831152404 | 92 | 43 | 1.0 | 5.0 | 0.00 | 0.00 | 0.00 | 100 | 1015.9 |
| 20260831151904 | 92 | 77 | 3.0 | 5.0 | 0.00 | 0.00 | 0.00 | 100 | 1015.8 |
| 20260831151404 | 92 | 202 | 4.0 | 6.0 | 0.00 | 0.00 | 0.00 | 100 | 1015.8 |
| 20260831150904 | 92 | 268 | 2.0 | 3.0 | 0.00 | 0.00 | 0.00 | 100 | 1015.8 |
| 20260831150404 | 92 | 129 | 2.0 | 6.0 | 0.00 | 0.00 | 0.00 | 100 | 1015.8 |
| 20260831145904 | 92 | 118 | 4.0 | 6.0 | 0.00 | 0.00 | 0.00 | 100 | 1015.8 |
| 20260831145404 | 92 | 194 | 0.0 | 3.0 | 0.00 | 0.00 | 0.00 | 100 | 1015.8 |
| 20260831144904 | 92 | 189 | 0.0 | 3.0 | 0.00 | 0.00 | 0.00 | 100 | 1015.9 |
| 20260831144404 | 91 | 116 | 0.0 | 4.0 | 0.00 | 0.00 | 0.00 | 100 | 1015.9 |
| 20260831143904 | 91 | 123 | 0.0 | 4.0 | 0.00 | 0.00 | 0.00 | 100 | 1015.8 |
| 20260831143404 | 91 | 210 | 0.0 | 4.0 | 0.00 | 0.00 | 0.00 | 100 | 1015.8 |
| 20260831142904 | 91 | 151 | 0.0 | 4.0 | 0.00 | 0.00 | 0.00 | 100 | 1015.8 |
| 20260831142404 | 90 | 205 | 0.0 | 4.0 | 0.00 | 0.00 | 0.00 | 100 | 1015.7 |
| 20260831142142 | 90 | 177 | 2.0 | 4.0 | 0.00 | 0.00 | 0.00 | 100 | 1015.7 |
| 20260831141904 | 90 | 177 | 2.0 | 4.0 | 0.00 | 0.00 | 0.00 | 100 | 1015.7 |
| 20260831141404 | 90 | 262 | 0.0 | 4.0 | 0.00 | 0.00 | 0.00 | 100 | 1015.7 |
| 20260831140904 | 90 | 167 | 0.0 | 6.0 | 0.00 | 0.00 | 0.00 | 100 | 1015.8 |
| 20260831140404 | 89 | 167 | 2.0 | 2.0 | 0.00 | 0.00 | 0.00 | 100 | 1015.8 |
| 20260831135904 | 89 | 180 | 0.0 | 3.0 | 0.00 | 0.00 | 0.00 | 100 | 1015.8 |
| 20260831135404 | 89 | 118 | 0.0 | 2.0 | 0.00 | 0.00 | 0.00 | 100 | 1015.8 |
| 20260831134904 | 88 | 157 | 0.0 | 3.0 | 0.00 | 0.00 | 0.00 | 100 | 1015.7 |
| 20260831134404 | 88 | 215 | 1.0 | 4.0 | 0.00 | 0.00 | 0.00 | 100 | 1015.9 |
| 20260831133904 | 88 | 168 | 0.0 | 4.0 | 0.00 | 0.00 | 0.00 | 100 | 1015.9 |
| 20260831133404 | 87 | 227 | 0.0 | 3.0 | 0.00 | 0.00 | 0.00 | 100 | 1015.9 |
| 20260831132904 | 87 | 98 | 0.0 | 2.0 | 0.00 | 0.00 | 0.00 | 100 | 1015.8 |
| 20260831132404 | 86 | 171 | 2.0 | 3.0 | 0.00 | 0.00 | 0.00 | 100 | 1015.8 |
| 20260831131904 | 86 | 229 | 0.0 | 0.0 | 0.00 | 0.00 | 0.00 | 100 | 1015.8 |
| 20260831131607 | 85 | 229 | 0.0 | 2.0 | 0.00 | 0.00 | 0.00 | 100 | 1015.7 |
| 20260831131404 | 85 | 229 | 0.0 | 2.0 | 0.00 | 0.00 | 0.00 | 100 | 1015.7 |
| 20260831130904 | 85 | 88 | 0.0 | 0.0 | 0.00 | 0.00 | 0.00 | 100 | 1015.7 |
| 20260831130404 | 84 | 88 | 0.0 | 0.0 | 0.00 | 0.00 | 0.00 | 100 | 1015.6 |
| 20260831130135 | 84 | 130 | 0.0 | 0.0 | 0.00 | 0.00 | 0.00 | 100 | 1015.7 |
| 20260831125904 | 84 | 130 | 0.0 | 0.0 | 0.00 | 0.00 | 0.00 | 100 | 1015.7 |
| 20260831125404 | 84 | 130 | 0.0 | 2.0 | 0.00 | 0.00 | 0.00 | 100 | 1015.6 |
| 20260831124904 | 84 | 160 | 0.0 | 0.0 | 0.00 | 0.00 | 0.00 | 100 | 1015.6 |
| 20260831124404 | 84 | 144 | 0.0 | 0.0 | 0.00 | 0.00 | 0.00 | 100 | 1015.7 |
| 20260831124147 | 83 | 144 | 0.0 | 2.0 | 0.00 | 0.00 | 0.00 | 100 | 1015.7 |
| 20260831123904 | 83 | 144 | 0.0 | 2.0 | 0.00 | 0.00 | 0.00 | 100 | 1015.7 |
| 20260831123642 | 83 | 181 | 0.0 | 0.0 | 0.00 | 0.00 | 0.00 | 100 | 1015.7 |
| 20260831123404 | 83 | 181 | 0.0 | 0.0 | 0.00 | 0.00 | 0.00 | 100 | 1015.7 |
| 20260831122904 | 83 | 73 | 0.0 | 0.0 | 0.00 | 0.00 | 0.00 | 100 | 1015.6 |
| 20260831122627 | 83 | 73 | 0.0 | 0.0 | 0.00 | 0.00 | 0.00 | 100 | 1015.5 |
| 20260831122404 | 83 | 73 | 0.0 | 0.0 | 0.00 | 0.00 | 0.00 | 100 | 1015.5 |
| 20260831122210 | 83 | 73 | 0.0 | 0.0 | 0.00 | 0.00 | 0.00 | 100 | 1015.5 |
| 20260831121904 | 83 | 73 | 0.0 | 0.0 | 0.00 | 0.00 | 0.00 | 100 | 1015.5 |
| 20260831121632 | 83 | 73 | 0.0 | 0.0 | 0.00 | 0.00 | 0.00 | 100 | 1015.4 |
| 20260831121404 | 83 | 73 | 0.0 | 0.0 | 0.00 | 0.00 | 0.00 | 100 | 1015.4 |
| 20260831121138 | 83 | 73 | 0.0 | 0.0 | 0.00 | 0.00 | 0.00 | 100 | 1015.3 |
| 20260831120951 | 83 | 73 | 0.0 | 0.0 | 0.00 | 0.00 | 0.00 | 100 | 1015.3 |
| 20260831120904 | 83 | 73 | 0.0 | 0.0 | 0.00 | 0.00 | 0.00 | 100 | 1015.3 |
| 20260831120404 | 83 | 73 | 0.0 | 0.0 | 0.00 | 0.00 | 0.00 | 100 | 1015.3 |
| 20260831115904 | 83 | 73 | 0.0 | 0.0 | 0.00 | 0.00 | 0.00 | 100 | 1015.2 |
| 20260831115538 | 82 | 73 | 0.0 | 0.0 | 0.00 | 0.00 | 0.00 | 100 | 1015.2 |
| 20260831115404 | 82 | 73 | 0.0 | 0.0 | 0.00 | 0.00 | 0.00 | 100 | 1015.2 |
| 20260831114904 | 82 | 73 | 0.0 | 0.0 | 0.00 | 0.00 | 0.00 | 100 | 1015.1 |
| 20260831114406 | 82 | 73 | 0.0 | 0.0 | 0.00 | 0.00 | 0.00 | 100 | 1015.0 |
| 20260831114404 | 82 | 73 | 0.0 | 0.0 | 0.00 | 0.00 | 0.00 | 100 | 1014.9 |
| 20260831113904 | 82 | 73 | 0.0 | 0.0 | 0.00 | 0.00 | 0.00 | 100 | 1015.0 |
| 20260831113404 | 82 | 73 | 0.0 | 0.0 | 0.00 | 0.00 | 0.00 | 100 | 1014.9 |
| 20260831113117 | 82 | 73 | 0.0 | 0.0 | 0.00 | 0.00 | 0.00 | 100 | 1014.9 |
| 20260831112904 | 82 | 73 | 0.0 | 0.0 | 0.00 | 0.00 | 0.00 | 100 | 1014.9 |
| 20260831112750 | 82 | 73 | 0.0 | 0.0 | 0.00 | 0.00 | 0.00 | 100 | 1014.9 |
| 20260831112404 | 82 | 73 | 0.0 | 0.0 | 0.00 | 0.00 | 0.00 | 100 | 1014.9 |
| 20260831111905 | 82 | 73 | 0.0 | 0.0 | 0.00 | 0.00 | 0.00 | 100 | 1014.8 |
| 20260831111404 | 82 | 73 | 0.0 | 0.0 | 0.00 | 0.00 | 0.00 | 100 | 1014.7 |
| 20260831110904 | 82 | 73 | 0.0 | 0.0 | 0.00 | 0.00 | 0.00 | 100 | 1014.6 |
| 20260831110636 | 82 | 73 | 0.0 | 0.0 | 0.00 | 0.00 | 0.00 | 100 | 1014.6 |
| 20260831110404 | 82 | 73 | 0.0 | 0.0 | 0.00 | 0.00 | 0.00 | 100 | 1014.6 |
| 20260831110137 | 82 | 73 | 0.0 | 0.0 | 0.00 | 0.00 | 0.00 | 100 | 1014.6 |
| 20260831105904 | 82 | 73 | 0.0 | 0.0 | 0.00 | 0.00 | 0.00 | 100 | 1014.6 |
| 20260831105404 | 82 | 73 | 0.0 | 0.0 | 0.00 | 0.00 | 0.00 | 100 | 1014.6 |
| 20260831105147 | 82 | 73 | 0.0 | 0.0 | 0.00 | 0.00 | 0.00 | 100 | 1014.5 |
| 20260831104904 | 82 | 73 | 0.0 | 0.0 | 0.00 | 0.00 | 0.00 | 100 | 1014.5 |
| 20260831104720 | 82 | 73 | 0.0 | 0.0 | 0.00 | 0.00 | 0.00 | 100 | 1014.4 |
| 20260831104404 | 82 | 73 | 0.0 | 0.0 | 0.00 | 0.00 | 0.00 | 100 | 1014.4 |
| 20260831104316 | 82 | 73 | 0.0 | 0.0 | 0.00 | 0.00 | 0.00 | 100 | 1014.4 |
| 20260831103904 | 82 | 73 | 0.0 | 0.0 | 0.00 | 0.00 | 0.00 | 100 | 1014.4 |
| 20260831103404 | 82 | 73 | 0.0 | 0.0 | 0.00 | 0.00 | 0.00 | 100 | 1014.4 |
| 20260831102904 | 82 | 73 | 0.0 | 0.0 | 0.00 | 0.00 | 0.00 | 100 | 1014.3 |
| 20260831102404 | 82 | 73 | 0.0 | 0.0 | 0.00 | 0.00 | 0.00 | 100 | 1014.2 |
| 20260831101904 | 82 | 73 | 0.0 | 0.0 | 0.00 | 0.00 | 0.00 | 100 | 1014.2 |
| 20260831101404 | 82 | 73 | 0.0 | 0.0 | 0.00 | 0.00 | 0.00 | 100 | 1014.2 |
| 20260831100904 | 82 | 73 | 0.0 | 0.0 | 0.00 | 0.00 | 0.00 | 100 | 1014.3 |
| 20260831100707 | 82 | 73 | 0.0 | 0.0 | 0.00 | 0.00 | 0.00 | 100 | 1014.2 |
| 20260831100404 | 82 | 73 | 0.0 | 0.0 | 0.00 | 0.00 | 0.00 | 100 | 1014.2 |
| 20260831100246 | 81 | 175 | 0.0 | 0.0 | 0.00 | 0.00 | 0.00 | 100 | 1014.6 |
| 20260831095904 | 82 | 73 | 0.0 | 0.0 | 0.00 | 0.00 | 0.00 | 100 | 1014.3 |
| 20260831095404 | 82 | 73 | 0.0 | 0.0 | 0.00 | 0.00 | 0.00 | 100 | 1014.4 |
| 20260831094904 | 82 | 73 | 0.0 | 0.0 | 0.00 | 0.00 | 0.00 | 100 | 1014.3 |
| 20260831094404 | 82 | 73 | 0.0 | 0.0 | 0.00 | 0.00 | 0.00 | 100 | 1014.3 |
| 20260831094302 | 82 | 73 | 0.0 | 0.0 | 0.00 | 0.00 | 0.00 | 100 | 1014.4 |
| 20260831093904 | 82 | 73 | 0.0 | 0.0 | 0.00 | 0.00 | 0.00 | 100 | 1014.4 |
| 20260831093707 | 82 | 73 | 0.0 | 0.0 | 0.00 | 0.00 | 0.00 | 100 | 1014.3 |
| 20260831093404 | 82 | 73 | 0.0 | 0.0 | 0.00 | 0.00 | 0.00 | 100 | 1014.3 |
| 20260831092904 | 82 | 73 | 0.0 | 0.0 | 0.00 | 0.00 | 0.00 | 100 | 1014.2 |
| 20260831092628 | 82 | 73 | 0.0 | 0.0 | 0.00 | 0.00 | 0.00 | 100 | 1014.3 |
| 20260831092404 | 82 | 73 | 0.0 | 0.0 | 0.00 | 0.00 | 0.00 | 100 | 1014.3 |
| 20260831092127 | 82 | 73 | 0.0 | 0.0 | 0.00 | 0.00 | 0.00 | 100 | 1014.2 |
| 20260831091904 | 82 | 73 | 0.0 | 0.0 | 0.00 | 0.00 | 0.00 | 100 | 1014.2 |
| 20260831091404 | 82 | 73 | 0.0 | 0.0 | 0.00 | 0.00 | 0.00 | 100 | 1014.1 |
| 20260831091221 | 82 | 73 | 0.0 | 0.0 | 0.00 | 0.00 | 0.00 | 100 | 1014.1 |
| 20260831090904 | 82 | 73 | 0.0 | 0.0 | 0.00 | 0.00 | 0.00 | 100 | 1014.1 |
| 20260831090404 | 82 | 73 | 0.0 | 0.0 | 0.00 | 0.00 | 0.00 | 100 | 1014.0 |
| 20260831085904 | 82 | 73 | 0.0 | 0.0 | 0.00 | 0.00 | 0.00 | 100 | 1014.0 |
| 20260831085633 | 82 | 73 | 0.0 | 0.0 | 0.00 | 0.00 | 0.00 | 100 | 1014.0 |
| 20260831085404 | 82 | 73 | 0.0 | 0.0 | 0.00 | 0.00 | 0.00 | 100 | 1014.0 |
| 20260831084904 | 82 | 73 | 0.0 | 0.0 | 0.00 | 0.00 | 0.00 | 100 | 1014.0 |
| 20260831084404 | 82 | 73 | 0.0 | 0.0 | 0.00 | 0.00 | 0.00 | 100 | 1014.0 |
| 20260831084147 | 82 | 73 | 0.0 | 0.0 | 0.00 | 0.00 | 0.00 | 100 | 1014.1 |
| 20260831083904 | 82 | 73 | 0.0 | 0.0 | 0.00 | 0.00 | 0.00 | 100 | 1014.1 |
| 20260831083404 | 82 | 73 | 0.0 | 0.0 | 0.00 | 0.00 | 0.00 | 100 | 1014.0 |
| 20260831082904 | 82 | 73 | 0.0 | 0.0 | 0.00 | 0.00 | 0.00 | 100 | 1014.1 |
| 20260831082404 | 82 | 73 | 0.0 | 0.0 | 0.00 | 0.00 | 0.00 | 100 | 1014.0 |
| 20260831082124 | 82 | 73 | 0.0 | 0.0 | 0.00 | 0.00 | 0.00 | 100 | 1014.1 |
| 20260831081904 | 82 | 73 | 0.0 | 0.0 | 0.00 | 0.00 | 0.00 | 100 | 1014.1 |
| 20260831081700 | 82 | 73 | 0.0 | 0.0 | 0.00 | 0.00 | 0.00 | 100 | 1014.1 |
| 20260831081556 | 82 | 73 | 0.0 | 0.0 | 0.00 | 0.00 | 0.00 | 100 | 1014.1 |
| 20260831081404 | 82 | 73 | 0.0 | 0.0 | 0.00 | 0.00 | 0.00 | 100 | 1014.1 |
| 20260831081336 | 82 | 73 | 0.0 | 0.0 | 0.00 | 0.00 | 0.00 | 100 | 1014.1 |
| 20260831081126 | 82 | 73 | 0.0 | 0.0 | 0.00 | 0.00 | 0.00 | 100 | 1014.1 |
| 20260831080904 | 82 | 73 | 0.0 | 0.0 | 0.00 | 0.00 | 0.00 | 100 | 1014.1 |
| 20260831080545 | 82 | 73 | 0.0 | 0.0 | 0.00 | 0.00 | 0.00 | 100 | 1014.0 |
| 20260831080404 | 82 | 73 | 0.0 | 0.0 | 0.00 | 0.00 | 0.00 | 100 | 1014.0 |
| 20260831075904 | 82 | 73 | 0.0 | 0.0 | 0.00 | 0.00 | 0.00 | 100 | 1014.0 |
| 20260831075541 | 82 | 73 | 0.0 | 0.0 | 0.00 | 0.00 | 0.00 | 100 | 1014.0 |
| 20260831075404 | 82 | 73 | 0.0 | 0.0 | 0.00 | 0.00 | 0.00 | 100 | 1014.0 |
| 20260831075133 | 82 | 73 | 0.0 | 0.0 | 0.00 | 0.00 | 0.00 | 100 | 1014.0 |
| 20260831074905 | 82 | 73 | 0.0 | 0.0 | 0.00 | 0.00 | 0.00 | 100 | 1014.0 |
| 20260831074404 | 82 | 73 | 0.0 | 0.0 | 0.00 | 0.00 | 0.00 | 100 | 1014.1 |
| 20260831073905 | 82 | 73 | 0.0 | 0.0 | 0.00 | 0.00 | 0.00 | 100 | 1014.1 |
| 20260831073628 | 82 | 73 | 0.0 | 0.0 | 0.00 | 0.00 | 0.00 | 100 | 1014.0 |
| 20260831073405 | 82 | 73 | 0.0 | 0.0 | 0.00 | 0.00 | 0.00 | 100 | 1014.0 |
| 20260831072905 | 82 | 73 | 0.0 | 0.0 | 0.00 | 0.00 | 0.00 | 100 | 1014.1 |
| 20260831072404 | 82 | 73 | 0.0 | 0.0 | 0.00 | 0.00 | 0.00 | 100 | 1014.1 |
| 20260831071905 | 82 | 73 | 0.0 | 0.0 | 0.00 | 0.00 | 0.00 | 100 | 1014.2 |
| 20260831071405 | 82 | 73 | 0.0 | 0.0 | 0.00 | 0.00 | 0.00 | 100 | 1014.2 |
| 20260831070905 | 82 | 73 | 0.0 | 0.0 | 0.00 | 0.00 | 0.00 | 100 | 1014.2 |
| 20260831070405 | 82 | 73 | 0.0 | 0.0 | 0.00 | 0.00 | 0.00 | 100 | 1014.2 |
| 20260831065905 | 82 | 73 | 0.0 | 0.0 | 0.00 | 0.00 | 0.00 | 100 | 1014.2 |
| 20260831065405 | 82 | 73 | 0.0 | 0.0 | 0.00 | 0.00 | 0.00 | 100 | 1014.2 |
| 20260831064905 | 82 | 73 | 0.0 | 0.0 | 0.00 | 0.00 | 0.00 | 100 | 1014.2 |
| 20260831064405 | 82 | 73 | 0.0 | 0.0 | 0.00 | 0.00 | 0.00 | 100 | 1014.4 |
| 20260831063905 | 82 | 73 | 0.0 | 0.0 | 0.00 | 0.00 | 0.00 | 100 | 1014.5 |
| 20260831063405 | 82 | 73 | 0.0 | 0.0 | 0.00 | 0.00 | 0.00 | 100 | 1014.3 |
| 20260831062905 | 82 | 73 | 0.0 | 0.0 | 0.00 | 0.00 | 0.00 | 100 | 1014.3 |
| 20260831062405 | 82 | 73 | 0.0 | 0.0 | 0.00 | 0.00 | 0.00 | 100 | 1014.5 |
| 20260831061905 | 82 | 73 | 0.0 | 0.0 | 0.00 | 0.00 | 0.00 | 100 | 1014.5 |
| 20260831061405 | 82 | 73 | 0.0 | 0.0 | 0.00 | 0.00 | 0.00 | 100 | 1014.6 |
| 20260831060905 | 82 | 73 | 0.0 | 0.0 | 0.00 | 0.00 | 0.00 | 100 | 1014.6 |
| 20260831060405 | 82 | 73 | 0.0 | 0.0 | 0.00 | 0.00 | 0.00 | 100 | 1014.6 |
| 20260831055905 | 82 | 73 | 0.0 | 0.0 | 0.00 | 0.00 | 0.00 | 100 | 1014.7 |
| 20260831055405 | 82 | 73 | 0.0 | 0.0 | 0.00 | 0.00 | 0.00 | 100 | 1014.7 |
| 20260831054905 | 82 | 73 | 0.0 | 0.0 | 0.00 | 0.00 | 0.00 | 100 | 1014.8 |
| 20260831054405 | 82 | 73 | 0.0 | 0.0 | 0.00 | 0.00 | 0.00 | 100 | 1014.7 |
| 20260831053905 | 82 | 73 | 0.0 | 0.0 | 0.00 | 0.00 | 0.00 | 100 | 1014.8 |
| 20260831053405 | 82 | 73 | 0.0 | 0.0 | 0.00 | 0.00 | 0.00 | 100 | 1014.8 |
| 20260831052905 | 82 | 73 | 0.0 | 0.0 | 0.00 | 0.00 | 0.00 | 100 | 1014.8 |
| 20260831052405 | 82 | 73 | 0.0 | 0.0 | 0.00 | 0.00 | 0.00 | 100 | 1014.8 |
| 20260831051905 | 82 | 73 | 0.0 | 0.0 | 0.00 | 0.00 | 0.00 | 100 | 1014.8 |
| 20260831051405 | 82 | 73 | 0.0 | 0.0 | 0.00 | 0.00 | 0.00 | 100 | 1014.9 |
| 20260831050905 | 82 | 73 | 0.0 | 0.0 | 0.00 | 0.00 | 0.00 | 100 | 1015.0 |
| 20260831050405 | 82 | 73 | 0.0 | 0.0 | 0.00 | 0.00 | 0.00 | 100 | 1015.0 |
| 20260831045905 | 82 | 73 | 0.0 | 0.0 | 0.00 | 0.00 | 0.00 | 100 | 1015.0 |
| 20260831045405 | 82 | 73 | 0.0 | 0.0 | 0.00 | 0.00 | 0.00 | 100 | 1015.1 |
| 20260831044905 | 82 | 73 | 0.0 | 0.0 | 0.00 | 0.00 | 0.00 | 100 | 1015.1 |
| 20260831044405 | 82 | 73 | 0.0 | 0.0 | 0.00 | 0.00 | 0.00 | 100 | 1015.2 |
| 20260831043905 | 82 | 73 | 0.0 | 0.0 | 0.00 | 0.00 | 0.00 | 100 | 1015.3 |
| 20260831043405 | 82 | 73 | 0.0 | 0.0 | 0.00 | 0.00 | 0.00 | 100 | 1015.2 |
| 20260831042905 | 82 | 73 | 0.0 | 0.0 | 0.00 | 0.00 | 0.00 | 100 | 1015.2 |
| 20260831042405 | 82 | 73 | 0.0 | 0.0 | 0.00 | 0.00 | 0.00 | 100 | 1015.2 |
| 20260831041905 | 82 | 73 | 0.0 | 0.0 | 0.00 | 0.00 | 0.00 | 100 | 1015.1 |
| 20260831041405 | 82 | 73 | 0.0 | 0.0 | 0.00 | 0.00 | 0.00 | 100 | 1015.0 |
| 20260831040905 | 82 | 73 | 0.0 | 0.0 | 0.00 | 0.00 | 0.00 | 100 | 1015.0 |
| 20260831040405 | 82 | 73 | 0.0 | 0.0 | 0.00 | 0.00 | 0.00 | 100 | 1015.0 |
| 20260831035905 | 82 | 73 | 0.0 | 0.0 | 0.00 | 0.00 | 0.00 | 100 | 1015.0 |
| 20260831035405 | 82 | 73 | 0.0 | 0.0 | 0.00 | 0.00 | 0.00 | 100 | 1015.0 |
| 20260831034905 | 82 | 73 | 0.0 | 0.0 | 0.00 | 0.00 | 0.00 | 100 | 1015.1 |
| 20260831034436 | 82 | 73 | 0.0 | 0.0 | 0.00 | 0.00 | 0.00 | 100 | 1015.0 |
| 20260831034405 | 82 | 73 | 0.0 | 0.0 | 0.00 | 0.00 | 0.00 | 100 | 1015.0 |
| 20260831033905 | 82 | 73 | 0.0 | 0.0 | 0.00 | 0.00 | 0.00 | 100 | 1015.0 |
| 20260831033405 | 82 | 73 | 0.0 | 0.0 | 0.00 | 0.00 | 0.00 | 100 | 1015.0 |
| 20260831033004 | 82 | 73 | 0.0 | 0.0 | 0.00 | 0.00 | 0.00 | 100 | 1015.0 |
| 20260831032905 | 82 | 73 | 0.0 | 0.0 | 0.00 | 0.00 | 0.00 | 100 | 1015.0 |
| 20260831032405 | 82 | 73 | 0.0 | 0.0 | 0.00 | 0.00 | 0.00 | 100 | 1015.1 |
| 20260831031905 | 82 | 73 | 0.0 | 0.0 | 0.00 | 0.00 | 0.00 | 100 | 1015.0 |
| 20260831031405 | 82 | 73 | 0.0 | 0.0 | 0.00 | 0.00 | 0.00 | 100 | 1015.1 |
| 20260831030905 | 82 | 73 | 0.0 | 0.0 | 0.00 | 0.00 | 0.00 | 100 | 1015.1 |
| 20260831030405 | 82 | 73 | 0.0 | 0.0 | 0.00 | 0.00 | 0.00 | 100 | 1015.2 |
| 20260831025905 | 82 | 73 | 0.0 | 0.0 | 0.00 | 0.00 | 0.00 | 100 | 1015.2 |
| 20260831025405 | 82 | 73 | 0.0 | 0.0 | 0.00 | 0.00 | 0.00 | 100 | 1015.3 |
| 20260831024905 | 82 | 73 | 0.0 | 0.0 | 0.00 | 0.00 | 0.00 | 100 | 1015.3 |
| 20260831024405 | 82 | 73 | 0.0 | 0.0 | 0.00 | 0.00 | 0.00 | 100 | 1015.2 |
| 20260831023905 | 82 | 73 | 0.0 | 0.0 | 0.00 | 0.00 | 0.00 | 100 | 1015.2 |
| 20260831023405 | 82 | 73 | 0.0 | 0.0 | 0.00 | 0.00 | 0.00 | 100 | 1015.2 |
| 20260831022905 | 82 | 73 | 0.0 | 0.0 | 0.00 | 0.00 | 0.00 | 100 | 1015.3 |
| 20260831022405 | 82 | 73 | 0.0 | 0.0 | 0.00 | 0.00 | 0.00 | 100 | 1015.3 |
| 20260831021905 | 82 | 73 | 0.0 | 0.0 | 0.00 | 0.00 | 0.00 | 100 | 1015.3 |
| 20260831021405 | 82 | 73 | 0.0 | 0.0 | 0.00 | 0.00 | 0.00 | 100 | 1015.4 |
| 20260831021229 | 82 | 73 | 0.0 | 0.0 | 0.00 | 0.00 | 0.00 | 100 | 1015.3 |
| 20260831020905 | 82 | 73 | 0.0 | 0.0 | 0.00 | 0.00 | 0.00 | 100 | 1015.3 |
| 20260831020405 | 82 | 73 | 0.0 | 0.0 | 0.00 | 0.00 | 0.00 | 100 | 1015.4 |
| 20260831015905 | 82 | 73 | 0.0 | 1.0 | 0.00 | 0.00 | 0.00 | 100 | 1015.4 |
| 20260831015405 | 82 | 122 | 0.0 | 0.0 | 0.00 | 0.00 | 0.00 | 100 | 1015.4 |
| 20260831015134 | 83 | 122 | 0.0 | 1.0 | 0.00 | 0.00 | 0.00 | 100 | 1015.4 |
| 20260831014905 | 83 | 122 | 0.0 | 1.0 | 0.00 | 0.00 | 0.00 | 100 | 1015.4 |
| 20260831014405 | 83 | 129 | 0.0 | 0.0 | 0.00 | 0.00 | 0.00 | 100 | 1015.4 |
| 20260831013905 | 83 | 132 | 0.0 | 2.0 | 0.00 | 0.00 | 0.00 | 100 | 1015.3 |
| 20260831013405 | 83 | 168 | 0.0 | 0.0 | 0.00 | 0.00 | 0.00 | 100 | 1015.2 |
| 20260831012905 | 83 | 168 | 0.0 | 0.0 | 0.00 | 0.00 | 0.00 | 100 | 1015.2 |
| 20260831012405 | 83 | 168 | 0.0 | 2.0 | 0.00 | 0.00 | 0.00 | 100 | 1015.2 |
| 20260831011905 | 83 | 94 | 0.0 | 3.0 | 0.00 | 0.00 | 0.00 | 100 | 1015.2 |
| 20260831011405 | 83 | 133 | 0.0 | 0.0 | 0.00 | 0.00 | 0.00 | 100 | 1014.6 |
| 20260831010905 | 83 | 133 | 0.0 | 2.0 | 0.00 | 0.00 | 0.00 | 100 | 1014.9 |
| 20260831010405 | 83 | 201 | 0.0 | 1.0 | 0.00 | 0.00 | 0.00 | 100 | 1013.6 |
| 20260831005905 | 83 | 126 | 0.0 | 5.0 | 0.00 | 0.00 | 0.00 | 100 | 1013.6 |
| 20260831005405 | 83 | 32 | 0.0 | 1.0 | 0.00 | 0.00 | 0.00 | 100 | 1013.9 |
| 20260831004905 | 83 | 18 | 0.0 | 6.0 | 0.00 | 0.00 | 0.00 | 100 | 1013.9 |
| 20260831004405 | 83 | 35 | 0.0 | 3.0 | 0.00 | 0.00 | 0.00 | 100 | 1014.2 |
| 20260831004140 | 83 | 77 | 0.0 | 6.0 | 0.00 | 0.00 | 0.00 | 100 | 1013.7 |
| 20260831003905 | 83 | 77 | 0.0 | 6.0 | 0.00 | 0.00 | 0.00 | 100 | 1013.7 |
| 20260831003405 | 84 | 59 | 0.0 | 0.0 | 0.00 | 0.00 | 0.00 | 100 | 1013.9 |
| 20260831003209 | 84 | 59 | 0.0 | 2.0 | 0.00 | 0.00 | 0.00 | 100 | 1014.5 |
| 20260831002905 | 84 | 59 | 0.0 | 2.0 | 0.00 | 0.00 | 0.00 | 100 | 1014.5 |
| 20260831002405 | 84 | 91 | 0.0 | 4.0 | 0.00 | 0.00 | 0.00 | 100 | 1014.7 |
| 20260831001905 | 84 | 71 | 2.0 | 4.0 | 0.00 | 0.00 | 0.00 | 100 | 1014.8 |
| 20260831001405 | 84 | 49 | 0.0 | 2.0 | 0.00 | 0.00 | 0.00 | 100 | 1014.9 |
| 20260831000905 | 84 | 111 | 0.0 | 3.0 | 0.00 | 0.00 | 0.00 | 100 | 1014.8 |
| 20260831000405 | 84 | 129 | 0.0 | 4.0 | 0.00 | 0.00 | 0.00 | 100 | 1014.9 |
| 20260830235905 | 84 | 61 | 0.0 | 3.0 | 0.00 | 0.00 | 0.00 | 100 | 1014.8 |
| 20260830235405 | 84 | 150 | 0.0 | 3.0 | 0.00 | 0.00 | 0.00 | 100 | 1014.7 |
| 20260830234905 | 84 | 217 | 0.0 | 2.0 | 0.00 | 0.00 | 0.00 | 100 | 1014.7 |
| 20260830234405 | 84 | 101 | 0.0 | 4.0 | 0.00 | 0.00 | 0.00 | 100 | 1014.7 |
| 20260830233905 | 84 | 75 | 0.0 | 0.0 | 0.00 | 0.00 | 0.00 | 100 | 1014.7 |
| 20260830233405 | 84 | 75 | 0.0 | 5.0 | 0.00 | 0.00 | 0.00 | 100 | 1014.7 |
| 20260830232905 | 84 | 81 | 2.0 | 2.0 | 0.00 | 0.00 | 0.00 | 100 | 1014.6 |
| 20260830232405 | 84 | 99 | 0.0 | 3.0 | 0.00 | 0.00 | 0.00 | 100 | 1014.7 |
| 20260830231905 | 84 | 150 | 0.0 | 0.0 | 0.00 | 0.00 | 0.00 | 100 | 1014.7 |
| 20260830231405 | 84 | 150 | 0.0 | 4.0 | 0.00 | 0.00 | 0.00 | 100 | 1014.7 |
| 20260830230905 | 84 | 66 | 0.0 | 0.0 | 0.00 | 0.00 | 0.00 | 100 | 1014.5 |
| 20260830230405 | 84 | 66 | 0.0 | 0.0 | 0.00 | 0.00 | 0.00 | 100 | 1014.7 |
| 20260830225905 | 84 | 66 | 0.0 | 5.0 | 0.00 | 0.00 | 0.00 | 100 | 1014.8 |
| 20260830225405 | 84 | 154 | 0.0 | 0.0 | 0.00 | 0.00 | 0.00 | 100 | 1014.9 |
| 20260830224905 | 84 | 154 | 0.0 | 0.0 | 0.00 | 0.00 | 0.00 | 100 | 1015.0 |
| 20260830224405 | 84 | 154 | 0.0 | 4.0 | 0.00 | 0.00 | 0.00 | 100 | 1015.2 |
| 20260830224208 | 84 | 286 | 0.0 | 3.0 | 0.00 | 0.00 | 0.00 | 100 | 1015.2 |
| 20260830223905 | 84 | 286 | 0.0 | 3.0 | 0.00 | 0.00 | 0.00 | 100 | 1015.2 |
| 20260830223405 | 84 | 81 | 3.0 | 3.0 | 0.00 | 0.00 | 0.00 | 100 | 1015.2 |
| 20260830222905 | 84 | 170 | 0.0 | 6.0 | 0.00 | 0.00 | 0.00 | 100 | 1015.2 |
| 20260830222405 | 84 | 237 | 0.0 | 7.0 | 0.00 | 0.00 | 0.00 | 100 | 1015.1 |
| 20260830222208 | 84 | 187 | 0.0 | 6.0 | 0.00 | 0.00 | 0.00 | 100 | 1015.0 |
| 20260830221905 | 84 | 187 | 0.0 | 6.0 | 0.00 | 0.00 | 0.00 | 100 | 1015.0 |
| 20260830221405 | 84 | 209 | 1.0 | 5.0 | 0.00 | 0.00 | 0.00 | 100 | 1015.1 |
| 20260830220905 | 84 | 192 | 0.0 | 5.0 | 0.00 | 0.00 | 0.00 | 100 | 1015.2 |
| 20260830220405 | 84 | 185 | 0.0 | 4.0 | 0.00 | 0.00 | 0.00 | 100 | 1015.3 |
| 20260830215905 | 84 | 188 | 4.0 | 4.0 | 0.00 | 0.00 | 0.00 | 100 | 1015.3 |
| 20260830215405 | 84 | 178 | 2.0 | 7.0 | 0.00 | 0.00 | 0.00 | 100 | 1015.2 |
| 20260830214905 | 84 | 143 | 0.0 | 9.0 | 0.00 | 0.00 | 0.00 | 100 | 1015.0 |
| 20260830214405 | 84 | 171 | 3.0 | 11.0 | 0.00 | 0.00 | 0.00 | 100 | 1014.9 |
| 20260830213905 | 84 | 217 | 2.0 | 9.0 | 0.00 | 0.00 | 0.00 | 100 | 1014.9 |
| 20260830213405 | 84 | 199 | 3.0 | 4.0 | 0.00 | 0.00 | 0.00 | 100 | 1014.2 |
| 20260830213138 | 84 | 22 | 0.0 | 5.0 | 0.00 | 0.00 | 0.00 | 100 | 1013.6 |
| 20260830212905 | 84 | 22 | 0.0 | 5.0 | 0.00 | 0.00 | 0.00 | 100 | 1013.6 |
| 20260830212405 | 84 | 19 | 4.0 | 5.0 | 0.00 | 0.00 | 0.00 | 100 | 1013.6 |
| 20260830211905 | 84 | 334 | 5.0 | 6.0 | 0.00 | 0.00 | 0.00 | 100 | 1013.6 |
| 20260830211405 | 84 | 341 | 3.0 | 5.0 | 0.00 | 0.00 | 0.00 | 100 | 1013.8 |
| 20260830211122 | 84 | 26 | 3.0 | 3.0 | 0.00 | 0.00 | 0.00 | 100 | 1013.8 |
| 20260830210905 | 84 | 26 | 3.0 | 3.0 | 0.00 | 0.00 | 0.00 | 100 | 1013.8 |
| 20260830210405 | 84 | 85 | 0.0 | 4.0 | 0.00 | 0.00 | 0.00 | 100 | 1014.1 |
| 20260830210036 | 85 | 105 | 2.0 | 4.0 | 0.00 | 0.00 | 0.00 | 100 | 1014.3 |
| 20260830205905 | 85 | 105 | 2.0 | 4.0 | 0.00 | 0.00 | 0.00 | 100 | 1014.3 |
| 20260830205405 | 86 | 67 | 0.0 | 3.0 | 0.00 | 0.00 | 0.00 | 100 | 1014.4 |
| 20260830204905 | 86 | 202 | 2.0 | 5.0 | 0.00 | 0.00 | 0.00 | 100 | 1014.4 |
| 20260830204405 | 86 | 157 | 2.0 | 6.0 | 0.00 | 0.00 | 0.00 | 100 | 1014.4 |
| 20260830203905 | 86 | 153 | 2.0 | 6.0 | 0.00 | 0.00 | 0.00 | 100 | 1014.4 |
| 20260830203406 | 86 | 192 | 3.0 | 9.0 | 0.00 | 0.00 | 0.00 | 100 | 1014.4 |
| 20260830202905 | 87 | 210 | 4.0 | 10.0 | 0.00 | 0.00 | 0.00 | 100 | 1014.2 |
| 20260830202406 | 88 | 205 | 7.0 | 12.0 | 0.00 | 0.00 | 0.00 | 100 | 1014.0 |
| 20260830202145 | 90 | 194 | 5.0 | 10.0 | 0.00 | 0.00 | 0.00 | 100 | 1014.1 |
| 20260830201906 | 90 | 194 | 5.0 | 10.0 | 0.00 | 0.00 | 0.00 | 100 | 1014.1 |
| 20260830201406 | 91 | 243 | 0.0 | 11.0 | 0.00 | 0.00 | 0.00 | 100 | 1013.8 |
| 20260830200906 | 91 | 320 | 1.0 | 11.0 | 0.00 | 0.00 | 0.00 | 100 | 1013.7 |
| 20260830200406 | 91 | 333 | 8.0 | 14.0 | 0.00 | 0.00 | 0.00 | 100 | 1013.7 |
| 20260830195906 | 91 | 337 | 4.0 | 12.0 | 0.00 | 0.00 | 0.00 | 100 | 1013.7 |
| 20260830195406 | 91 | 329 | 9.0 | 12.0 | 0.00 | 0.00 | 0.00 | 100 | 1013.7 |
| 20260830194906 | 91 | 358 | 9.0 | 13.0 | 0.00 | 0.00 | 0.00 | 100 | 1013.9 |
| 20260830194406 | 91 | 337 | 4.0 | 11.0 | 0.00 | 0.00 | 0.00 | 100 | 1014.0 |
| 20260830193906 | 91 | 15 | 8.0 | 14.0 | 0.00 | 0.00 | 0.00 | 100 | 1014.0 |
| 20260830193406 | 91 | 317 | 8.0 | 12.0 | 0.00 | 0.00 | 0.00 | 100 | 1014.0 |
| 20260830192906 | 91 | 330 | 7.0 | 12.0 | 0.00 | 0.00 | 0.00 | 100 | 1014.1 |
| 20260830192406 | 91 | 7 | 8.0 | 11.0 | 0.00 | 0.00 | 0.00 | 100 | 1014.3 |
| 20260830191906 | 91 | 333 | 8.0 | 11.0 | 0.00 | 0.00 | 0.00 | 100 | 1014.3 |
| 20260830191406 | 91 | 1 | 7.0 | 12.0 | 0.00 | 0.00 | 0.00 | 100 | 1014.4 |
| 20260830190906 | 91 | 16 | 9.0 | 10.0 | 0.00 | 0.00 | 0.00 | 100 | 1014.3 |
| 20260830190406 | 91 | 345 | 9.0 | 11.0 | 0.00 | 0.00 | 0.00 | 100 | 1014.3 |
| 20260830185906 | 91 | 341 | 7.0 | 13.0 | 0.00 | 0.00 | 0.00 | 100 | 1014.3 |
| 20260830185406 | 91 | 0 | 10.0 | 12.0 | 0.00 | 0.00 | 0.00 | 100 | 1014.5 |
| 20260830184906 | 91 | 14 | 8.0 | 12.0 | 0.00 | 0.00 | 0.00 | 100 | 1014.5 |
| 20260830184406 | 90 | 8 | 11.0 | 12.0 | 0.00 | 0.00 | 0.00 | 100 | 1014.6 |
| 20260830183906 | 91 | 7 | 6.0 | 9.0 | 0.00 | 0.00 | 0.00 | 100 | 1014.7 |
| 20260830183406 | 91 | 345 | 4.0 | 9.0 | 0.00 | 0.00 | 0.00 | 100 | 1014.7 |
| 20260830182906 | 91 | 350 | 4.0 | 11.0 | 0.00 | 0.00 | 0.00 | 100 | 1014.8 |
| 20260830182406 | 91 | 9 | 5.0 | 10.0 | 0.00 | 0.00 | 0.00 | 100 | 1015.0 |
| 20260830181906 | 90 | 36 | 6.0 | 9.0 | 0.00 | 0.00 | 0.00 | 100 | 1015.0 |
| 20260830181406 | 91 | 16 | 6.0 | 10.0 | 0.00 | 0.00 | 0.00 | 100 | 1015.0 |
| 20260830181234 | 91 | 347 | 8.0 | 8.0 | 0.00 | 0.00 | 0.00 | 100 | 1015.1 |
| 20260830180906 | 91 | 347 | 8.0 | 8.0 | 0.00 | 0.00 | 0.00 | 100 | 1015.1 |
| 20260830180406 | 91 | 315 | 8.0 | 8.0 | 0.00 | 0.00 | 0.00 | 100 | 1015.1 |
| 20260830175906 | 90 | 358 | 4.0 | 10.0 | 0.00 | 0.00 | 0.00 | 100 | 1015.2 |
| 20260830175406 | 91 | 18 | 4.0 | 9.0 | 0.00 | 0.00 | 0.00 | 100 | 1014.0 |
| 20260830174906 | 91 | 28 | 3.0 | 10.0 | 0.00 | 0.00 | 0.00 | 100 | 1015.2 |
| 20260830174406 | 91 | 358 | 5.0 | 10.0 | 0.00 | 0.00 | 0.00 | 100 | 1015.3 |
| 20260830173906 | 91 | 18 | 5.0 | 10.0 | 0.00 | 0.00 | 0.00 | 100 | 1015.3 |
| 20260830173407 | 92 | 343 | 6.0 | 9.0 | 0.00 | 0.00 | 0.00 | 100 | 1015.3 |
| 20260830172906 | 92 | 358 | 9.0 | 9.0 | 0.00 | 0.00 | 0.00 | 100 | 1015.4 |
| 20260830172406 | 93 | 12 | 0.0 | 5.0 | 0.00 | 0.00 | 0.00 | 100 | 1015.5 |
| 20260830171906 | 93 | 315 | 2.0 | 7.0 | 0.00 | 0.00 | 0.00 | 100 | 1015.5 |
| 20260830171407 | 94 | 16 | 6.0 | 6.0 | 0.00 | 0.00 | 0.00 | 100 | 1015.6 |
| 20260830170906 | 94 | 171 | 0.0 | 5.0 | 0.00 | 0.00 | 0.00 | 100 | 1015.4 |
| 20260830170406 | 93 | 236 | 0.0 | 4.0 | 0.00 | 0.00 | 0.00 | 100 | 1015.7 |
| 20260830165906 | 93 | 232 | 3.0 | 4.0 | 0.00 | 0.00 | 0.00 | 100 | 1014.5 |
| 20260830165406 | 93 | 2 | 0.0 | 5.0 | 0.00 | 0.00 | 0.00 | 100 | 1015.8 |
| 20260830164906 | 92 | 195 | 0.0 | 3.0 | 0.00 | 0.00 | 0.00 | 100 | 1015.8 |
| 20260830164406 | 92 | 262 | 1.0 | 4.0 | 0.00 | 0.00 | 0.00 | 100 | 1015.8 |
| 20260830163906 | 93 | 52 | 0.0 | 3.0 | 0.00 | 0.00 | 0.00 | 100 | 1015.9 |
| 20260830163406 | 93 | 60 | 0.0 | 3.0 | 0.00 | 0.00 | 0.00 | 100 | 1015.9 |
| 20260830162906 | 93 | 45 | 0.0 | 4.0 | 0.00 | 0.00 | 0.00 | 100 | 1016.0 |
| 20260830162406 | 92 | 227 | 0.0 | 0.0 | 0.00 | 0.00 | 0.00 | 100 | 1016.0 |
| 20260830161906 | 92 | 227 | 0.0 | 3.0 | 0.00 | 0.00 | 0.00 | 100 | 1016.1 |
| 20260830161406 | 92 | 265 | 0.0 | 5.0 | 0.00 | 0.00 | 0.00 | 100 | 1016.2 |
| 20260830160906 | 91 | 160 | 3.0 | 5.0 | 0.00 | 0.00 | 0.00 | 100 | 1016.3 |